Radioactive Concentration measured by Seawater Radiation Monitor near Fukushima Daiichi Nuclear Power Station
Date,Time,Cs137(Bq/L),Cs134(Bq/L),Total β(Bq/L)
2019/11/03,00:00,0.90,ND,ND
2019/11/03,00:10,1.0,ND,ND
2019/11/03,00:20,1.0,ND,ND
2019/11/03,00:30,1.0,ND,ND
2019/11/03,00:40,0.91,ND,9.7
2019/11/03,00:50,0.90,ND,9.7
2019/11/03,01:00,0.89,ND,ND
2019/11/03,01:10,0.89,ND,ND
2019/11/03,01:20,0.99,ND,8.8
2019/11/03,01:30,1.0,ND,ND
2019/11/03,01:40,0.97,ND,ND
2019/11/03,01:50,0.96,ND,ND
2019/11/03,02:00,0.98,ND,ND
2019/11/03,02:10,0.97,ND,ND
2019/11/03,02:20,0.96,ND,ND
2019/11/03,02:30,0.95,ND,ND
2019/11/03,02:40,0.99,ND,ND
2019/11/03,02:50,0.98,ND,ND
2019/11/03,03:00,0.98,ND,ND
2019/11/03,03:10,0.98,ND,ND
2019/11/03,03:20,0.96,ND,ND
2019/11/03,03:30,0.97,ND,ND
2019/11/03,03:40,0.94,ND,ND
2019/11/03,03:50,0.92,ND,ND
2019/11/03,04:00,0.90,ND,ND
2019/11/03,04:10,0.93,ND,ND
2019/11/03,04:20,0.95,ND,ND
2019/11/03,04:30,0.94,ND,ND
2019/11/03,04:40,0.94,ND,8.8
2019/11/03,04:50,0.94,ND,ND
2019/11/03,05:00,0.95,ND,ND
2019/11/03,05:10,0.94,ND,ND
2019/11/03,05:20,0.92,ND,ND
2019/11/03,05:30,0.91,ND,9.2
2019/11/03,05:40,0.90,ND,8.9
2019/11/03,05:50,0.89,ND,12
2019/11/03,06:00,0.90,ND,8.9
2019/11/03,06:10,0.89,ND,ND
2019/11/03,06:20,0.89,ND,ND
2019/11/03,06:30,0.90,ND,ND
2019/11/03,06:40,0.89,ND,ND
2019/11/03,06:50,0.87,ND,ND
2019/11/03,07:00,0.87,ND,ND
2019/11/03,07:10,0.89,ND,ND
2019/11/03,07:20,0.83,ND,ND
2019/11/03,07:30,0.84,ND,9.0
2019/11/03,07:40,0.90,ND,ND
2019/11/03,07:50,0.85,ND,ND
2019/11/03,08:00,0.89,ND,ND
2019/11/03,08:10,0.88,ND,ND
2019/11/03,08:20,0.88,ND,9.0
2019/11/03,08:30,0.87,ND,ND
2019/11/03,08:40,0.87,ND,10
2019/11/03,08:50,0.87,ND,12
2019/11/03,09:00,0.87,ND,13
2019/11/03,09:10,0.86,ND,13
2019/11/03,09:20,0.87,ND,13
2019/11/03,09:30,0.87,ND,14
2019/11/03,09:40,0.87,ND,13
2019/11/03,09:50,0.87,ND,9.9
2019/11/03,10:00,0.90,ND,ND
2019/11/03,10:10,0.89,ND,ND
2019/11/03,10:20,0.90,ND,ND
2019/11/03,10:30,0.90,ND,ND
2019/11/03,10:40,0.82,ND,ND
2019/11/03,10:50,0.81,ND,ND
2019/11/03,11:00,0.81,ND,ND
2019/11/03,11:10,0.85,ND,ND
2019/11/03,11:20,0.94,ND,ND
2019/11/03,11:30,0.93,ND,ND
2019/11/03,11:40,0.92,ND,ND
2019/11/03,11:50,0.93,ND,ND
2019/11/03,12:00,0.94,ND,ND
2019/11/03,12:10,0.92,ND,ND
2019/11/03,12:20,0.93,ND,ND
2019/11/03,12:30,0.92,ND,ND
2019/11/03,12:40,0.92,ND,10
2019/11/03,12:50,0.92,ND,11
2019/11/03,13:00,0.91,ND,10
2019/11/03,13:10,0.91,ND,9.2
2019/11/03,13:20,0.90,ND,12
2019/11/03,13:30,0.92,ND,12
2019/11/03,13:40,0.95,ND,14
2019/11/03,13:50,0.90,ND,11
2019/11/03,14:00,0.93,ND,12
2019/11/03,14:10,0.88,ND,14
2019/11/03,14:20,0.92,ND,11
2019/11/03,14:30,0.89,ND,10
2019/11/03,14:40,0.87,ND,9.0
2019/11/03,14:50,0.85,ND,9.7
2019/11/03,15:00,0.87,ND,10
2019/11/03,15:10,0.85,ND,8.8
2019/11/03,15:20,0.84,ND,ND
2019/11/03,15:30,0.83,ND,ND
2019/11/03,15:40,0.82,ND,ND
2019/11/03,15:50,0.82,ND,ND
2019/11/03,16:00,0.83,ND,ND
2019/11/03,16:10,0.83,ND,ND
2019/11/03,16:20,0.81,ND,8.9
2019/11/03,16:30,0.81,ND,ND
2019/11/03,16:40,0.81,ND,ND
2019/11/03,16:50,0.80,ND,8.9
2019/11/03,17:00,0.78,ND,ND
2019/11/03,17:10,0.76,ND,ND
2019/11/03,17:20,0.80,ND,ND
2019/11/03,17:30,0.81,ND,ND
2019/11/03,17:40,0.81,ND,ND
2019/11/03,17:50,0.81,ND,ND
2019/11/03,18:00,0.82,ND,ND
2019/11/03,18:10,0.84,ND,ND
2019/11/03,18:20,0.81,ND,ND
2019/11/03,18:30,0.81,ND,9.0
2019/11/03,18:40,0.75,ND,11
2019/11/03,18:50,0.76,ND,11
2019/11/03,19:00,0.75,ND,9.2
2019/11/03,19:10,0.73,ND,ND
2019/11/03,19:20,0.80,ND,ND
2019/11/03,19:30,0.81,ND,ND
2019/11/03,19:40,0.81,ND,ND
2019/11/03,19:50,0.82,ND,ND
2019/11/03,20:00,0.82,ND,ND
2019/11/03,20:10,0.79,ND,ND
2019/11/03,20:20,0.79,ND,ND
2019/11/03,20:30,0.84,ND,9.2
2019/11/03,20:40,0.87,ND,ND
2019/11/03,20:50,0.86,ND,ND
2019/11/03,21:00,0.85,ND,ND
2019/11/03,21:10,0.84,ND,ND
2019/11/03,21:20,0.84,ND,ND
2019/11/03,21:30,0.82,ND,ND
2019/11/03,21:40,0.79,ND,ND
2019/11/03,21:50,0.79,ND,ND
2019/11/03,22:00,0.79,ND,ND
2019/11/03,22:10,0.79,ND,ND
2019/11/03,22:20,0.80,ND,ND
2019/11/03,22:30,0.81,ND,ND
2019/11/03,22:40,0.81,ND,ND
2019/11/03,22:50,0.81,ND,ND
2019/11/03,23:00,0.82,ND,ND
2019/11/03,23:10,0.82,ND,ND
2019/11/03,23:20,0.82,ND,8.8
2019/11/03,23:30,0.82,ND,ND
2019/11/03,23:40,0.81,ND,9.9
2019/11/03,23:50,0.83,ND,10
